GW4286 Weather Reports


time (UTC)temp
C
wind
direction
speed
KPH
gust
KPH
rain 1hr
cm
rain 24hr
cm
rain mn
cm
humidity
%
barometer
mb
20260505111508 8 153 14.5 35.4 0.00 0.00 0.00 91 1013.0
20260505101524 7 187 16.1 32.2 0.00 0.00 0.00 93 1012.3
20260505100011 7 167 16.1 29.0 0.00 0.00 0.00 94 1012.3
20260505094531 7 183 14.5 27.4 0.00 0.00 0.00 94 1012.1
20260505093020 6 180 12.9 29.0 0.00 0.00 0.00 94 1012.1
20260505091526 6 202 11.3 25.7 0.00 0.00 0.00 94 1012.0
20260505090026 6 156 12.9 22.5 0.00 0.00 0.00 93 1012.0
20260505084514 6 162 11.3 20.9 0.00 0.00 0.00 93 1012.0
20260505083002 6 169 8.0 25.7 0.00 0.00 0.00 93 1012.1
20260505081503 6 152 11.3 24.1 0.00 0.00 0.00 93 1012.0
20260505080006 6 136 9.7 19.3 0.00 0.00 0.00 93 1012.0
20260505074530 6 141 8.0 24.1 0.00 0.00 0.00 92 1012.0
20260505073012 6 175 11.3 25.7 0.00 0.00 0.00 92 1011.9
20260505071517 6 173 9.7 25.7 0.00 0.00 0.00 92 1011.8
20260505070003 7 165 14.5 25.7 0.00 0.00 0.00 91 1011.6
20260505064504 7 184 14.5 30.6 0.00 0.00 0.00 92 1011.3
20260505063010 7 188 11.3 24.1 0.00 0.00 0.00 91 1011.2
20260505061514 7 172 11.3 22.5 0.00 0.00 0.00 91 1011.2
20260505060018 7 184 9.7 20.9 0.00 0.00 0.00 91 1011.2
20260505054512 7 175 9.7 19.3 0.00 0.00 0.00 90 1011.2
20260505053005 7 178 9.7 22.5 0.00 0.00 0.00 90 1011.2
20260505051512 7 139 11.3 19.3 0.00 0.00 0.00 90 1011.2
20260505041508 7 151 12.9 20.9 0.00 0.00 0.00 89 1011.3
20260505040011 7 181 9.7 22.5 0.00 0.00 0.00 89 1011.4
20260505034533 7 161 12.9 24.1 0.00 0.00 0.00 89 1011.3
20260505033022 7 175 12.9 20.9 0.00 0.03 0.00 89 1011.2
20260505031524 7 188 12.9 20.9 0.00 0.05 0.00 88 1011.0
20260505030024 7 202 12.9 22.5 0.00 0.08 0.00 88 1010.9
20260505024516 7 165 9.7 20.9 0.00 0.08 0.08 88 1010.9
20260505023018 7 190 11.3 24.1 0.00 0.08 0.08 88 1010.8
20260505021524 7 165 12.9 24.1 0.00 0.10 0.08 88 1010.7
20260505020023 7 161 12.9 24.1 0.00 0.13 0.08 88 1010.6
20260505014517 7 185 11.3 20.9 0.00 0.15 0.08 88 1010.5
20260505013018 7 183 9.7 20.9 0.00 0.18 0.08 89 1010.2
20260505011519 7 184 9.7 20.9 0.00 0.20 0.08 88 1010.0
20260505010022 7 180 11.3 25.7 0.00 0.28 0.08 89 1010.0
20260505004547 7 185 12.9 22.5 0.00 0.36 0.08 89 1009.9
20260505003027 7 199 14.5 24.1 0.00 0.48 0.08 89 1009.6
20260505001516 7 227 16.1 20.9 0.00 0.64 0.08 89 1009.6
20260505000020 7 201 12.9 22.5 0.00 0.79 0.08 88 1009.6
20260504234524 7 196 12.9 24.1 0.00 0.94 0.08 88 1009.2
20260504233025 7 174 14.5 22.5 0.00 1.07 0.08 87 1008.7
20260504231526 7 198 11.3 20.9 0.00 1.19 0.08 88 1008.6
20260504230016 7 200 14.5 20.9 0.00 1.30 0.08 87 1008.3
20260504224534 7 223 14.5 27.4 0.00 1.40 0.08 87 1008.2
20260504223030 7 204 11.3 24.1 0.00 1.52 0.08 85 1007.8
20260504221537 8 208 14.5 29.0 0.00 1.63 0.08 86 1007.6
20260504220028 8 182 12.9 29.0 0.00 1.78 0.08 85 1007.4
20260504214528 8 198 14.5 32.2 0.00 1.88 0.08 83 1007.6
20260504213011 9 174 16.1 35.4 0.00 1.88 0.08 82 1007.6
20260504211507 9 170 16.1 27.4 0.00 1.88 0.08 83 1007.5
20260504210012 8 157 14.5 25.7 0.00 1.88 0.08 86 1007.6
20260504204533 8 140 12.9 25.7 0.00 1.88 0.08 86 1007.9
20260504203018 8 200 12.9 25.7 0.00 1.88 0.08 85 1008.1
20260504201523 7 180 12.9 24.1 0.00 1.88 0.08 85 1008.0
20260504200009 8 170 12.9 25.7 0.00 1.88 0.08 85 1008.2
20260504194526 8 169 12.9 32.2 0.00 1.88 0.08 85 1007.9
20260504193018 8 194 14.5 29.0 0.00 1.88 0.08 85 1008.0
20260504191524 8 186 17.7 38.6 0.00 1.96 0.08 81 1007.9
20260504190030 10 165 20.9 37.0 0.00 2.01 0.08 79 1007.7
20260504184540 10 167 20.9 37.0 0.00 2.06 0.08 81 1007.5
20260504183011 10 209 19.3 37.0 0.00 2.16 0.08 81 1007.7
20260504181519 10 184 19.3 40.2 0.00 2.24 0.08 80 1007.6
20260504180033 10 162 20.9 41.8 0.00 2.29 0.08 80 1007.5
20260504174523 10 201 16.1 35.4 0.00 2.36 0.08 78 1007.6
20260504173014 10 189 17.7 38.6 0.00 2.49 0.08 78 1007.6
20260504171514 10 209 19.3 32.2 0.00 2.59 0.08 80 1007.7